sat.trackr.live / text

‹ back to catalog

GPS BIII-9 (PRN 20)

NORAD 67588 · 2026-017A

PAYLOAD ACTIVE UNKNOWN

§ Identity

Operator
Country
US
Launch date
2026-01-28
Launch site
AFETR
Launch vehicle
Mass (kg)
RCS (m²)

Purposes: nav

External: N2YO · Heavens-Above · Gunter

§ Orbital elements

Epoch: 2026-09-18T22:15:16.424352Z

Period
717.96 min
Inclination
55.1550°
Eccentricity
0.0020771
Mean motion
2.00568884 rev/d
Perigee alt
20,126.6 km
Apogee alt
20,236.9 km
Semi-major
26,559.9 km
B*
0.0000e+0
RAAN
84.9940°
Arg perigee
263.5416°
Mean anomaly
96.2731°
Rev number
43,349

§ Raw data

GPS BIII-9  (PRN 20)1 67588U 26017A   26261.92727343  .00000007  00000+0  00000+0 0  99992 67588  55.1550  84.9940 0020771 263.5416  96.2731  2.00568884433497

JSON: /api/v1/satellites/67588 · /tle

For live sub-satellite position, see the globe view (requires WebGL).

§ Visibility from observer

Set your observer location to see the next 7 days of passes ≥ 10°. The values pass through the URL so the page stays shareable.

No JS? Fill the form by hand. The geolocation button needs JavaScript.